Weather History for Hutchinson, KS

Change the Weather History Date:

Monday, May 6, 2013

  Actual Average Record
Temperature  
Mean Temperature 53 °F -  
Max Temperature 70 °F 74 °F 102 °F (2014)
Min Temperature 37 °F 47 °F 37 °F (2013)
Degree Days  
Heating Degree Days 12    
Growing Degree Days 3 (Base 50)    
Moisture  
Dew Point 43 °F    
Average Humidity 83    
Maximum Humidity 100    
Minimum Humidity 47    
Precipitation  
Precipitation 0.00 in - - ()
Sea Level Pressure  
Sea Level Pressure 30.11 in    
Wind  
Wind Speed 3 mph (North)    
Max Wind Speed 8 mph    
Max Gust Speed -    
Visibility 5 miles    
Events Fog    
Averages and records for this station are not official NWS values.
T = Trace of Precipitation, MM = Missing Value Source: NWS Daily Summary

Daily Weather History Graph

Daily Weather History Graph

Search for Another Location

Airport:

Trip Planner

Search our weather history database for the weather conditions in past years. The results will help you decide how hot, cold, wet, or windy it might be!

Date:

Astronomy

May. 06, 2013 Rise Set
Actual Time 6:29 AM CDT 8:27 PM CDT
Civil Twilight 6:00 AM CDT 8:56 PM CDT
Nautical Twilight 5:25 AM CDT 9:31 PM CDT
Astronomical Twilight 4:47 AM CDT 10:09 PM CDT
Moon 4:29 AM CDT (5/6) 5:31 PM CDT (5/6)
Length of Visible Light 14h 55m
Length of Day
13h 58m
Waning Crescent, 11% of the Moon is Illuminated
May 6
Waning Crescent
May 9
New
May 17
First Quarter
May 24
Full
May 31
Last Quarter

Hourly Weather History & Observations

Time (CDT) Temp. Windchill Dew Point Humidity Pressure Visibility Wind Dir Wind Speed Gust Speed Precip Events Conditions
12:52 AM 44.1 °F - 43.0 °F 96% 30.12 in 8.0 mi Calm Calm - N/A   Clear
1:52 AM 44.1 °F - 42.1 °F 93% 30.10 in 10.0 mi Calm Calm - N/A   Clear
2:38 AM 42.8 °F 40.1 °F 39.2 °F 87% 30.12 in 1.5 mi NW 4.6 mph - N/A   Clear
2:50 AM 42.8 °F 41.1 °F 41.0 °F 93% 30.12 in 3.0 mi WNW 3.5 mph - N/A   Clear
2:52 AM 43.0 °F 41.3 °F 41.0 °F 93% 30.10 in 4.0 mi WNW 3.5 mph - N/A   Clear
3:07 AM 42.8 °F 41.1 °F 41.0 °F 93% 30.12 in 1.2 mi NW 3.5 mph - N/A   Clear
3:15 AM 44.6 °F 43.1 °F 42.8 °F 93% 30.12 in 0.5 mi NNW 3.5 mph - N/A Fog Fog
3:40 AM 42.8 °F 41.1 °F 41.0 °F 93% 30.12 in 0.2 mi WNW 3.5 mph - N/A Fog Fog
3:47 AM 41.0 °F 39.0 °F 39.9 °F 96% 30.10 in 1.5 mi NW 3.5 mph - N/A   Clear
3:55 AM 41.0 °F 38.0 °F 39.2 °F 93% 30.12 in 0.2 mi NW 4.6 mph - N/A Fog Fog
4:16 AM 37.4 °F 34.9 °F 37.4 °F 100% 30.12 in 0.5 mi NNW 3.5 mph - N/A Fog Fog
4:24 AM 44.6 °F 43.1 °F 42.8 °F 93% 30.12 in 0.8 mi North 3.5 mph - N/A   Clear
4:28 AM 39.2 °F - 39.2 °F 100% 30.12 in 0.2 mi Calm Calm - N/A Fog Fog
4:52 AM 39.9 °F - 37.9 °F 93% 30.10 in 0.5 mi Calm Calm - N/A Fog Fog
5:08 AM 39.2 °F - 37.4 °F 93% 30.13 in 1.2 mi Calm Calm - N/A   Partly Cloudy
5:13 AM 39.2 °F 37.0 °F 37.4 °F 93% 30.13 in 0.8 mi WNW 3.5 mph - N/A   Mist
5:29 AM 39.2 °F 35.9 °F 39.2 °F 100% 30.13 in 1.5 mi WNW 4.6 mph - N/A   Partly Cloudy
5:32 AM 39.2 °F 37.0 °F 39.2 °F 100% 30.13 in 3.0 mi WNW 3.5 mph - N/A   Partly Cloudy
5:49 AM 41.0 °F - 39.2 °F 93% 30.13 in 1.8 mi Calm Calm - N/A   Clear
5:52 AM 42.1 °F - 39.9 °F 92% 30.11 in 1.5 mi Calm Calm - N/A   Clear
6:01 AM 39.2 °F 37.0 °F 37.4 °F 93% 30.13 in 0.5 mi WNW 3.5 mph - N/A Fog Fog
6:07 AM 39.2 °F 37.0 °F 37.4 °F 93% 30.13 in 2.5 mi WNW 3.5 mph - N/A   Clear
6:15 AM 39.2 °F - 37.4 °F 93% 30.13 in 0.8 mi Calm Calm - N/A   Clear
6:42 AM 37.4 °F - 37.4 °F 100% 30.14 in 0.2 mi Calm Calm - N/A Fog Fog
6:52 AM 39.0 °F - 37.0 °F 93% 30.12 in 0.2 mi Calm Calm - N/A Fog Fog
7:04 AM 44.6 °F 40.7 °F 42.8 °F 93% 30.14 in 1.0 mi NNE 6.9 mph - N/A   Clear
7:08 AM 44.6 °F 42.2 °F 42.8 °F 93% 30.14 in 2.0 mi NNE 4.6 mph - N/A   Partly Cloudy
7:16 AM 44.6 °F 42.2 °F 44.6 °F 100% 30.14 in 1.8 mi NNE 4.6 mph - N/A   Partly Cloudy
7:22 AM 46.4 °F 44.3 °F 44.6 °F 93% 30.15 in 3.0 mi North 4.6 mph - N/A   Partly Cloudy
7:52 AM 48.0 °F - 46.0 °F 93% 30.14 in 5.0 mi Calm Calm - N/A   Clear
8:08 AM 48.2 °F - 44.6 °F 87% 30.16 in 5.0 mi NNE 3.5 mph - N/A   Scattered Clouds
8:17 AM 48.2 °F - 46.4 °F 93% 30.17 in 4.0 mi NNE 5.8 mph - N/A   Mostly Cloudy
8:52 AM 48.9 °F - 46.9 °F 93% 30.15 in 5.0 mi NNE 4.6 mph - N/A   Overcast
9:30 AM 53.6 °F - 46.4 °F 77% 30.17 in 8.0 mi NNE 6.9 mph - N/A   Mostly Cloudy
9:43 AM 55.4 °F - 48.2 °F 77% 30.17 in 10.0 mi North 6.9 mph - N/A   Scattered Clouds
9:52 AM 55.9 °F - 48.0 °F 75% 30.15 in 10.0 mi North 5.8 mph - N/A   Scattered Clouds
10:52 AM 59.0 °F - 48.0 °F 67% 30.14 in 10.0 mi NNW 6.9 mph - N/A   Partly Cloudy
11:52 AM 62.1 °F - 46.9 °F 58% 30.13 in 10.0 mi North 8.1 mph - N/A   Clear
12:52 PM 64.9 °F - 48.0 °F 54% 30.11 in 10.0 mi NE 8.1 mph - N/A   Clear
1:52 PM 64.9 °F - 48.0 °F 54% 30.09 in 10.0 mi Calm Calm - N/A   Scattered Clouds
2:52 PM 68.0 °F - 48.9 °F 50% 30.07 in 10.0 mi East 5.8 mph - N/A   Mostly Cloudy
3:52 PM 69.1 °F - 48.0 °F 47% 30.05 in 10.0 mi SE 4.6 mph - N/A   Scattered Clouds
4:52 PM 68.0 °F - 46.9 °F 47% 30.04 in 10.0 mi South 4.6 mph - N/A   Mostly Cloudy
5:52 PM 69.1 °F - 48.0 °F 47% 30.02 in 10.0 mi South 3.5 mph - N/A   Clear
6:52 PM 68.0 °F - 48.0 °F 49% 30.02 in 10.0 mi East 3.5 mph - N/A   Mostly Cloudy
7:52 PM 64.9 °F - 48.9 °F 56% 30.02 in 10.0 mi East 4.6 mph - N/A   Clear
8:52 PM 57.0 °F - 48.0 °F 72% 30.04 in 10.0 mi ESE 4.6 mph - N/A   Clear
9:52 PM 57.9 °F - 48.9 °F 72% 30.04 in 10.0 mi ESE 6.9 mph - N/A   Clear
10:52 PM 55.9 °F - 48.9 °F 77% 30.04 in 10.0 mi ESE 6.9 mph - N/A   Clear
11:52 PM 54.0 °F - 48.0 °F 80% 30.04 in 10.0 mi ESE 5.8 mph - N/A   Clear